Wind_Speed
19 20 20 21 21 21 22 22 22 22 22 22 22 23 23 22 22 23 23 23 23 23 22 21 20 20 20 20 20 20 20 22 22 22 22 22 23 24 26 28 29 31 32
18 18 19 19 19 20 20 21 21 21 21 22 22 21 21 21 22 22 22 22 22 22 22 21 20 19 19 18 18 18 19 20 22 23 23 23 23 24 25 26 27 29 30
17 17 18 18 18 19 19 20 20 19 20 21 20 19 19 19 20 21 21 21 21 21 20 19 18 18 18 18 17 17 18 19 21 21 22 23 23 23 24 25 26 27 29
16 17 17 18 18 18 18 19 19 19 19 19 19 18 18 19 19 19 20 20 20 20 19 18 17 17 17 17 17 18 18 18 18 19 21 22 22 22 22 24 25 26 27
16 16 17 17 17 17 18 18 18 18 18 19 18 17 18 18 18 19 19 19 19 19 19 18 17 17 18 17 18 19 20 20 20 21 21 21 22 22 21 22 23 24 25
15 16 16 16 16 17 17 17 17 17 17 17 17 17 18 18 18 19 20 20 20 20 19 19 18 18 17 17 18 19 19 20 20 20 20 20 20 20 20 20 21 22 23
14 15 15 16 16 16 16 16 17 17 16 16 16 17 18 18 19 19 20 20 20 20 20 19 18 18 18 17 18 18 18 19 19 19 19 19 19 19 20 20 20 21 21
13 14 15 15 15 15 15 15 15 16 16 16 17 18 18 18 19 19 19 19 20 20 19 19 19 19 19 18 18 18 19 19 19 19 19 18 18 18 19 19 19 19 20
12 13 14 14 14 14 14 14 14 15 16 16 17 17 18 18 18 18 18 19 19 19 20 20 20 20 19 19 19 19 19 19 19 19 18 18 18 18 18 18 18 19 19
12 12 13 13 13 13 13 14 14 16 17 17 17 17 17 17 18 18 19 20 20 20 20 21 21 21 20 19 19 19 19 19 19 19 18 19 18 18 18 19 19 20 20
11 11 12 12 12 12 13 13 14 16 16 16 17 17 17 18 19 19 20 21 21 21 21 22 22 21 21 21 20 20 19 19 19 19 19 18 18 19 19 20 20 21 21
10 10 11 12 12 12 13 13 14 15 15 16 17 17 18 19 19 19 20 21 21 21 22 22 22 22 22 22 21 20 20 19 18 18 19 19 20 21 21 21 22 23 23
9 10 11 11 11 11 12 13 13 14 15 16 17 17 18 18 18 19 20 21 22 22 23 22 23 23 23 23 22 21 20 19 18 18 19 20 21 21 21 22 23 23 24
7 9 10 10 11 11 12 12 13 14 15 16 17 17 18 19 19 20 21 22 22 23 23 23 23 23 23 23 23 22 21 20 20 19 20 21 22 22 22 23 24 24 25
6 8 9 10 11 11 11 12 13 14 15 17 18 18 19 19 20 22 23 23 23 23 24 24 24 24 24 24 24 23 23 22 22 22 22 22 23 23 24 24 24 24 25
6 7 8 9 11 11 11 12 13 15 16 18 19 19 20 21 22 23 23 24 24 25 25 25 25 25 25 24 24 24 23 23 23 24 24 23 23 23 24 24 24 24 25
6 7 8 9 10 11 11 12 14 15 17 19 20 20 21 22 23 23 23 24 25 26 26 26 26 26 25 25 24 24 23 23 24 24 24 24 24 24 24 24 25 25 26
5 7 8 9 10 11 12 13 15 16 17 19 20 21 22 23 24 24 24 25 26 27 27 27 27 27 26 25 25 25 24 24 24 24 23 23 23 24 24 24 25 25 25
5 6 8 9 10 11 13 14 15 17 18 20 21 22 23 24 25 26 26 26 27 27 27 27 27 27 27 26 26 26 25 25 25 25 25 24 24 23 23 23 24 24 25
5 6 8 9 10 12 13 15 16 18 19 20 22 23 25 25 26 27 27 27 27 27 28 28 28 28 28 28 28 28 27 26 25 25 25 25 24 23 22 22 22 23 24
5 6 8 10 11 13 14 15 17 18 20 21 23 25 25 26 27 28 27 27 28 28 28 29 29 30 31 31 30 29 28 27 26 26 25 24 23 22 22 22 22 22 23
5 6 8 10 11 13 14 16 17 19 20 22 24 26 26 27 27 28 29 28 28 28 29 30 31 31 32 31 30 30 28 27 26 25 24 24 23 23 23 23 23 23 23
5 6 8 10 12 13 15 16 18 19 21 22 25 26 27 28 28 29 29 29 29 29 30 31 32 32 32 31 31 30 29 27 26 25 24 24 23 22 22 22 22 22 22
5 6 8 9 11 13 15 17 18 20 22 24 26 27 28 29 29 29 29 30 30 30 31 33 33 33 32 31 31 31 29 28 26 25 25 24 23 22 22 21 21 21 20
6 7 8 10 11 13 15 17 19 21 23 24 26 28 29 30 29 29 30 31 31 32 32 33 33 32 32 32 31 30 30 29 27 26 25 23 23 22 22 21 21 20 20
6 7 8 10 12 14 16 17 19 22 24 25 27 28 29 30 30 30 31 32 32 33 33 34 34 34 33 33 32 31 30 29 28 27 25 24 23 23 22 22 21 21 21
Wind_Direction
293 295 296 298 301 301 301 302 303 304 306 308 309 309 307 309 310 311 311 312 312 311 308 303 299 298 298 294 288 283 281 278 275 270 268 267 269 266 262 258 258 255 255
299 298 299 302 305 307 306 305 306 307 309 311 312 313 311 311 311 312 312 312 313 312 309 306 303 301 300 298 292 284 282 279 277 273 270 270 270 268 265 263 261 259 257
298 299 302 304 308 309 309 310 311 313 315 315 315 316 315 315 315 315 314 315 315 315 314 310 307 305 304 299 293 288 284 282 281 276 275 273 272 269 265 265 264 261 259
300 299 301 305 307 309 311 312 314 315 317 320 319 318 317 317 319 320 320 321 320 320 318 315 312 310 309 304 299 293 291 287 284 283 280 275 272 271 269 268 265 262 260
296 299 302 304 306 308 312 315 316 316 319 321 321 321 321 321 323 324 324 324 324 322 322 320 317 312 310 307 303 297 292 288 284 284 283 279 276 273 272 270 266 263 261
298 298 302 304 307 311 314 316 319 321 324 325 324 323 323 323 324 325 325 325 326 325 323 322 318 314 312 310 306 302 295 292 288 286 286 285 281 275 274 272 270 266 264
298 301 305 308 310 313 316 317 320 323 325 326 326 325 325 325 324 324 324 324 324 324 323 322 321 318 314 312 309 306 300 296 294 290 287 284 281 278 274 272 271 269 268
301 305 308 310 314 316 317 319 321 324 327 328 327 326 327 326 326 327 326 325 326 327 326 324 322 321 319 314 310 307 301 298 295 293 289 284 281 280 276 271 270 268 267
306 309 312 315 318 318 320 323 326 328 330 329 328 328 327 328 328 331 330 330 329 328 325 322 321 320 318 315 312 308 304 299 295 293 290 285 280 277 275 274 272 269 266
309 313 316 320 321 322 323 324 328 331 332 333 332 332 331 330 330 331 332 330 328 327 326 326 324 323 321 316 314 309 304 300 295 292 289 285 282 280 278 274 271 269 267
312 316 320 323 324 325 325 326 328 331 333 335 335 334 333 331 330 330 330 330 330 328 327 325 325 323 322 319 316 312 307 302 297 291 288 285 282 280 280 279 275 272 270
313 318 325 326 326 326 328 330 330 332 333 332 332 333 333 333 332 331 331 331 331 330 329 326 325 323 321 320 318 315 312 308 302 294 288 285 282 280 280 279 277 274 271
313 320 327 331 331 331 333 334 333 334 335 335 335 335 335 335 335 333 333 333 332 331 330 327 326 324 323 321 319 317 313 310 306 300 293 287 283 281 280 281 279 275 272
319 326 333 336 337 336 337 338 338 339 339 339 341 340 339 338 336 335 334 333 333 333 332 330 329 328 327 324 321 318 314 311 309 304 300 295 289 284 281 280 280 278 275
331 337 341 343 342 339 340 343 345 346 346 345 345 344 343 341 340 339 338 337 337 336 334 333 331 329 327 325 323 318 314 310 306 304 301 296 291 288 286 284 282 279 276
330 339 345 349 348 347 346 348 350 351 351 349 348 348 346 344 342 341 341 341 340 339 337 335 333 331 328 326 323 319 314 311 307 304 301 297 294 290 287 286 282 280 278
335 344 351 352 353 354 354 352 352 352 352 351 350 349 348 346 344 343 342 341 340 340 339 337 335 333 330 327 324 320 316 313 309 306 303 301 297 294 291 288 284 281 279
346 350 351 353 357 358 356 353 352 351 350 350 350 349 348 347 346 344 341 340 341 341 340 338 336 334 332 329 326 323 320 318 316 311 306 302 299 297 295 291 287 283 279
355 356 356 358 358 357 356 354 352 350 348 349 349 349 348 347 347 346 343 341 341 340 340 340 338 337 336 332 329 326 323 320 319 317 312 307 304 301 297 293 289 286 282
356 358 360 359 358 356 356 355 354 352 351 349 349 349 348 347 347 347 346 344 343 343 342 341 340 339 337 335 331 329 325 321 319 316 314 311 307 304 300 296 292 290 286
355 357 358 358 357 356 356 355 354 353 352 352 351 350 349 349 349 349 349 348 347 345 343 342 341 339 338 336 334 332 329 325 323 321 319 316 312 307 303 299 296 293 290
353 352 356 359 359 359 358 357 356 355 353 353 352 351 351 350 351 351 350 349 348 347 346 344 343 341 340 339 338 336 333 330 329 326 323 321 318 313 309 304 300 296 293
360 357 357 359 359 359 358 358 357 356 355 354 353 352 351 351 351 351 351 351 350 349 348 346 345 344 343 343 342 340 339 338 336 332 328 324 322 319 315 311 306 302 298
3 359 359 360 360 360 359 359 359 357 356 355 354 353 352 352 353 353 353 352 351 350 348 348 347 346 346 345 344 343 341 340 338 335 333 331 327 324 320 315 312 308 304
6 2 1 360 359 358 358 357 356 356 355 355 354 353 353 354 354 354 353 353 352 351 350 349 349 349 348 347 346 344 343 342 341 338 336 334 331 328 326 323 318 314 310
7 4 1 359 358 356 355 355 354 355 355 355 354 353 353 354 355 354 353 354 353 352 351 351 351 351 350 349 347 346 345 343 342 340 338 336 334 332 329 326 322 319 316
Height
5784 5782 5780 5777 5775 5772 5769 5766 5763 5760 5757 5753 5750 5746 5743 5739 5736 5732 5729 5725 5721 5717 5714 5711 5708 5705 5703 5701 5699 5698 5697 5697 5696 5695 5694 5694 5695 5695 5695 5696 5697 5699 5700
5779 5777 5775 5772 5769 5767 5764 5761 5758 5755 5752 5748 5745 5741 5738 5734 5731 5727 5724 5720 5716 5713 5709 5706 5703 5700 5698 5696 5694 5693 5692 5691 5690 5689 5688 5688 5688 5688 5688 5689 5689 5690 5692
5774 5772 5770 5767 5765 5762 5759 5756 5753 5750 5747 5743 5740 5736 5733 5729 5726 5723 5719 5716 5712 5708 5704 5701 5698 5696 5693 5691 5690 5688 5687 5686 5684 5683 5683 5682 5682 5681 5681 5681 5681 5682 5683
5769 5767 5765 5763 5761 5758 5755 5752 5749 5746 5743 5739 5735 5732 5728 5725 5722 5718 5715 5711 5708 5704 5700 5697 5694 5692 5689 5687 5685 5684 5682 5680 5679 5678 5677 5676 5675 5675 5674 5674 5674 5674 5675
5765 5763 5761 5759 5756 5754 5751 5748 5745 5742 5739 5735 5731 5728 5724 5721 5718 5715 5711 5708 5704 5700 5697 5694 5690 5688 5685 5683 5681 5679 5677 5675 5674 5672 5671 5670 5669 5668 5668 5667 5667 5667 5667
5760 5759 5757 5755 5752 5750 5747 5744 5741 5738 5735 5731 5728 5725 5721 5718 5715 5712 5708 5704 5701 5697 5694 5690 5687 5684 5681 5678 5676 5674 5672 5670 5668 5666 5665 5664 5663 5662 5661 5661 5660 5660 5660
5756 5755 5753 5751 5748 5746 5743 5740 5738 5735 5731 5728 5725 5721 5718 5715 5712 5709 5705 5701 5698 5694 5690 5687 5683 5680 5677 5674 5671 5669 5667 5665 5663 5661 5660 5658 5657 5656 5655 5655 5654 5654 5653
5753 5751 5749 5747 5745 5742 5740 5737 5734 5731 5728 5725 5722 5719 5715 5712 5709 5705 5701 5698 5694 5690 5687 5683 5680 5676 5672 5669 5667 5664 5662 5660 5658 5656 5654 5653 5651 5650 5650 5649 5649 5648 5648
5750 5748 5746 5744 5742 5739 5736 5734 5731 5728 5725 5722 5719 5715 5712 5709 5706 5702 5698 5695 5691 5687 5683 5680 5676 5672 5669 5666 5663 5660 5657 5654 5652 5650 5649 5647 5646 5645 5644 5643 5643 5643 5642
5747 5745 5743 5741 5739 5736 5734 5731 5729 5726 5723 5719 5716 5712 5709 5706 5703 5699 5695 5692 5688 5683 5680 5676 5672 5668 5664 5661 5658 5655 5652 5649 5646 5644 5643 5641 5640 5639 5638 5637 5637 5636 5636
5744 5743 5741 5738 5736 5733 5731 5729 5726 5723 5720 5717 5713 5710 5707 5703 5700 5696 5692 5688 5684 5680 5676 5672 5668 5664 5660 5656 5653 5650 5646 5643 5641 5638 5637 5635 5634 5633 5632 5631 5630 5630 5629
5742 5740 5738 5736 5733 5731 5729 5726 5724 5721 5718 5714 5711 5708 5704 5700 5697 5693 5689 5685 5681 5676 5672 5668 5664 5660 5655 5651 5648 5644 5641 5638 5635 5633 5631 5630 5628 5627 5626 5624 5623 5622 5622
5739 5738 5736 5734 5731 5729 5726 5724 5721 5718 5715 5712 5709 5705 5702 5698 5694 5690 5686 5682 5677 5673 5668 5664 5659 5655 5650 5646 5642 5639 5636 5632 5630 5627 5625 5623 5622 5620 5618 5617 5616 5615 5614
5738 5736 5734 5732 5729 5727 5725 5722 5719 5717 5714 5710 5707 5703 5700 5696 5692 5687 5683 5678 5674 5669 5664 5660 5655 5650 5646 5642 5637 5634 5630 5627 5624 5622 5619 5617 5615 5613 5611 5610 5608 5607 5606
5736 5734 5732 5730 5728 5726 5723 5721 5718 5716 5712 5709 5705 5701 5697 5693 5689 5684 5679 5675 5670 5665 5660 5656 5651 5646 5642 5637 5633 5629 5625 5621 5618 5615 5613 5610 5607 5605 5603 5602 5600 5599 5598
5734 5733 5731 5729 5727 5725 5722 5720 5718 5715 5712 5708 5704 5699 5695 5691 5686 5681 5676 5672 5666 5661 5656 5651 5646 5642 5637 5632 5628 5623 5619 5615 5612 5609 5606 5602 5600 5597 5595 5593 5592 5591 5590
5733 5732 5730 5728 5726 5724 5722 5719 5717 5714 5710 5707 5702 5698 5693 5688 5684 5679 5674 5669 5663 5658 5653 5647 5642 5637 5632 5627 5623 5618 5614 5609 5605 5602 5598 5595 5592 5589 5587 5585 5584 5582 5581
5732 5731 5729 5728 5726 5723 5721 5718 5715 5712 5709 5705 5701 5696 5691 5686 5681 5676 5671 5666 5660 5655 5649 5644 5638 5633 5628 5622 5617 5612 5608 5603 5599 5595 5591 5588 5585 5582 5579 5577 5575 5573 5572
5732 5731 5729 5727 5725 5723 5720 5717 5714 5711 5707 5703 5699 5694 5690 5684 5679 5674 5668 5663 5657 5651 5646 5640 5634 5629 5623 5617 5612 5607 5602 5597 5592 5588 5584 5580 5577 5574 5571 5569 5566 5565 5563
5731 5730 5728 5727 5725 5722 5719 5717 5713 5710 5706 5702 5697 5693 5687 5682 5676 5671 5665 5659 5653 5648 5642 5636 5630 5624 5618 5613 5607 5601 5596 5591 5586 5581 5577 5573 5570 5566 5563 5561 5558 5556 5555
5730 5729 5728 5726 5724 5721 5719 5716 5712 5709 5705 5700 5696 5691 5685 5680 5674 5668 5663 5657 5651 5645 5639 5633 5627 5620 5614 5608 5601 5595 5590 5584 5579 5574 5570 5566 5562 5559 5556 5553 5551 5548 5546
5730 5729 5727 5725 5723 5721 5718 5715 5712 5708 5703 5699 5694 5689 5684 5678 5672 5666 5661 5654 5648 5642 5636 5630 5623 5617 5610 5603 5597 5590 5584 5578 5573 5568 5564 5560 5556 5552 5549 5546 5543 5541 5538
5729 5728 5727 5725 5723 5720 5717 5714 5711 5707 5702 5698 5693 5687 5682 5676 5670 5664 5658 5652 5646 5639 5633 5626 5619 5612 5605 5599 5592 5586 5579 5573 5568 5563 5558 5554 5550 5546 5543 5539 5536 5533 5531
5729 5728 5726 5724 5722 5720 5717 5714 5710 5706 5701 5697 5691 5686 5680 5674 5668 5662 5656 5650 5643 5637 5630 5623 5616 5609 5602 5595 5588 5582 5575 5569 5564 5558 5554 5549 5545 5541 5537 5533 5530 5527 5524
5728 5727 5725 5724 5721 5719 5716 5713 5709 5705 5700 5695 5690 5685 5679 5673 5667 5661 5654 5648 5641 5634 5627 5620 5613 5606 5599 5592 5585 5578 5572 5565 5559 5554 5549 5544 5540 5535 5531 5527 5524 5521 5517
5728 5727 5725 5723 5721 5718 5715 5712 5708 5704 5699 5694 5689 5683 5677 5671 5665 5659 5652 5646 5639 5632 5625 5618 5610 5603 5596 5589 5582 5575 5568 5562 5556 5550 5545 5540 5535 5531 5527 5522 5519 5515 5511